千帆星座-44 (QIANFAN-44)

导读

QIANFAN-44 是中国北斗卫星导航系统的一部分,属于北斗三号工程的组网卫星。该卫星于2023年成功发射,主要用于提供高精度定位、导航和授时服务,提升全球范围内的系统性能和稳定性。QIANFAN-44 采用先进技术和国产化设备,增强了系统的抗干扰能力和多模兼容性,对推动我国卫星导航产业发展、保障国家安全和促进民用领域应用具有重要意义。

Basic Information
目录编号:
62245
目录名称:
QIANFAN-44
国际标识:
2024-232J
轨道中心:
EARTH
卫星名称:
千帆星座-44
卫星全名:
千帆星座-44 (QIANFAN-44)
卫星状态:
在轨 (已飞行645 天)
发射日期:
2024-12-05 UTC
国别 :
中国 (CN)
星等 :
--
This satellite is enrolled in the Space Conjunction Data Service (SCDS) and the current flight risk assessment level is: No High Risk
Orbit Information
数据来源 国际轨道数据 AOE轨道数据
星历时间 2026-09-11T13:21:37+0800
7小时前
查看轨道信息
2026-09-05T03:00:00+0800
6天前
查看轨道信息
半长轴 7446.614km 7446.618km
偏心率 0.0015513 0.0015384
轨道倾角 89.016° 89.014°
近地点辐角 123.739° 140.681°
升交点赤经 13.727° 14.367°
平近点角 236.525° 276.405°
近地点 1056.925km 1057.025km
远地点 1080.029km 1079.937km
周期 106.585分钟 106.586分钟
每日圈数 13.510285 13.510274
Detailed Information
卫星平台:
44
覆盖范围:
全球
运营商:
上海垣信卫星科技有限公司
运营商所在国:
中国
使用方式:
暂无
Satellite Introduction
千帆星座,也被称为“G60星链”计划,是中国版“星链”的重要组成部分,旨在打造一个由1.4万多颗低轨宽频多媒体卫星构成的庞大星座。千帆星座计划由上海垣信卫星科技有限公司负责实施,于2023年启动建设。该项目是我国第二个低轨卫星大星座,旨在通过构建庞大的卫星网络,为全球用户提供高质量的通信和宽带互联网服务。
2D Orbit Map
3D Orbit Map
Orbit Altitude Analysis Chart
Orbit Inclination Analysis Chart
Orbit Comprehensive Analysis Chart
View Comprehensive Chart
Conjunction Data List
Event ID Objects TCA Miss Dist (km) Collision Risk Probability Collision Risk Index (CRI) Action
CDM_260914-033400-095306-224521
2026-09-14T
03:34:48+0000
0.920 km
远距离
3.582148E-5 中风险 0.66
Miss Distance Evolution Trend with All Objects
Collision Probability Evolution Trend with All Objects